TimeCST,TemperatureF,Dew PointF,Humidity,Sea Level PressureIn,VisibilityMPH,Wind Direction,Wind SpeedMPH,Gust SpeedMPH,PrecipitationIn,Events,Conditions,WindDirDegrees,DateUTC
12:56 AM,30.0,28.0,92,30.17,10.0,Calm,Calm,-,N/A,,Clear,0,2012-11-25 06:56:00
1:56 AM,30.0,28.0,92,30.16,10.0,Calm,Calm,-,N/A,,Clear,0,2012-11-25 07:56:00
2:56 AM,30.0,28.0,92,30.14,10.0,Calm,Calm,-,N/A,,Clear,0,2012-11-25 08:56:00
3:56 AM,30.0,27.0,88,30.13,10.0,Calm,Calm,-,N/A,,Clear,0,2012-11-25 09:56:00
4:56 AM,30.0,27.0,88,30.13,8.0,Calm,Calm,-,N/A,,Clear,0,2012-11-25 10:56:00
5:56 AM,30.0,28.0,92,30.14,6.0,Calm,Calm,-,N/A,,Clear,0,2012-11-25 11:56:00
6:56 AM,30.0,28.0,92,30.15,9.0,Calm,Calm,-,N/A,,Clear,0,2012-11-25 12:56:00
7:56 AM,37.0,32.0,82,30.16,10.0,South,4.6,-,N/A,,Clear,170,2012-11-25 13:56:00
8:56 AM,46.9,30.0,52,30.16,10.0,Variable,4.6,-,N/A,,Clear,0,2012-11-25 14:56:00
9:56 AM,53.1,32.0,45,30.17,10.0,Variable,4.6,-,N/A,,Clear,0,2012-11-25 15:56:00
10:56 AM,61.0,36.0,39,30.14,10.0,South,8.1,-,N/A,,Clear,190,2012-11-25 16:56:00
11:56 AM,64.0,37.9,38,30.11,10.0,Variable,5.8,-,N/A,,Clear,0,2012-11-25 17:56:00
12:56 PM,66.0,36.0,33,30.07,10.0,Variable,4.6,-,N/A,,Clear,0,2012-11-25 18:56:00
1:56 PM,68.0,37.0,32,30.04,10.0,Variable,5.8,-,N/A,,Clear,0,2012-11-25 19:56:00
2:56 PM,68.0,37.9,33,30.02,10.0,Variable,3.5,-,N/A,,Clear,0,2012-11-25 20:56:00
3:56 PM,68.0,41.0,37,30.02,10.0,Variable,5.8,-,N/A,,Clear,0,2012-11-25 21:56:00
4:56 PM,64.0,41.0,43,30.02,9.0,Variable,3.5,-,N/A,,Clear,0,2012-11-25 22:56:00
5:56 PM,57.0,43.0,59,30.01,10.0,Calm,Calm,-,N/A,,Clear,0,2012-11-25 23:56:00
6:56 PM,55.0,44.1,67,30.02,10.0,SSE,3.5,-,N/A,,Clear,160,2012-11-26 00:56:00
7:56 PM,55.9,45.0,67,30.02,10.0,Variable,4.6,-,N/A,,Clear,0,2012-11-26 01:56:00
8:56 PM,55.9,48.0,75,30.02,10.0,South,4.6,-,N/A,,Clear,170,2012-11-26 02:56:00
9:56 PM,55.0,50.0,83,30.02,10.0,South,4.6,-,N/A,,Clear,170,2012-11-26 03:56:00
10:56 PM,57.0,52.0,83,30.01,10.0,SSE,5.8,-,N/A,,Clear,160,2012-11-26 04:56:00
11:56 PM,57.0,53.1,87,30.01,10.0,South,4.6,-,N/A,,Clear,170,2012-11-26 05:56:00